This is the latest recevied weather packets stored in our database for station/object N1ORT. If no packets are shown the sender has not sent any weather packets the latest 1 day(s).
| Time | Temp. | Humidity | Pressure | Rain* | Wind** | Luminosity | Snow |
|---|---|---|---|---|---|---|---|
| 1778044720 | 17.22° C | 68% | 1007.4 hPa | 0 mm | 1.34 m/s, 317° | 0 W/m² | - |
| 1778044416 | 17.22° C | 67% | 1007.5 hPa | 0 mm | 0.45 m/s, 295° | 0 W/m² | - |
| 1778044114 | 17.22° C | 68% | 1007.5 hPa | 0 mm | 0.89 m/s, 282° | 0 W/m² | - |
| 1778043811 | 17.22° C | 67% | 1007.6 hPa | 0 mm | 1.79 m/s, 256° | 0 W/m² | - |
| 1778043508 | 17.22° C | 67% | 1007.8 hPa | 0 mm | 1.79 m/s, 271° | 0 W/m² | - |
| 1778043205 | 17.22° C | 68% | 1007.5 hPa | 0 mm | 0.45 m/s, 269° | 0 W/m² | - |
| 1778042902 | 17.22° C | 67% | 1007.9 hPa | 0 mm | 0.89 m/s, 261° | 0 W/m² | - |
| 1778042600 | 17.22° C | 67% | 1008 hPa | 0 mm | 1.34 m/s, 84° | 0 W/m² | - |
| 1778042296 | 17.22° C | 66% | 1007.5 hPa | 0 mm | 0.45 m/s, 92° | 0 W/m² | - |
| 1778041994 | 17.22° C | 66% | 1007.6 hPa | 0 mm | 0.89 m/s, 239° | 0 W/m² | - |
| 1778041692 | 17.78° C | 66% | 1007.5 hPa | 0 mm | 0 m/s | 0 W/m² | - |
| 1778041391 | 17.78° C | 65% | 1007.5 hPa | 0 mm | 1.34 m/s, 84° | 0 W/m² | - |
| 1778041089 | 17.78° C | 65% | 1007.8 hPa | 0 mm | 1.34 m/s, 50° | 0 W/m² | - |
| 1778040785 | 17.78° C | 65% | 1007.7 hPa | 0 mm | 0 m/s | 0 W/m² | - |
| 1778040483 | 17.78° C | 64% | 1007.7 hPa | 0 mm | 1.34 m/s, 268° | 0 W/m² | - |
| 1778040180 | 17.78° C | 63% | 1007.5 hPa | 0 mm | 0.89 m/s, 88° | 0 W/m² | - |
| 1778039876 | 17.78° C | 63% | 1007.5 hPa | 0 mm | 1.79 m/s, 59° | 0 W/m² | - |
| 1778039573 | 17.78° C | 63% | 1007.7 hPa | 0 mm | 1.34 m/s, 23° | 0 W/m² | - |
| 1778039270 | 18.33° C | 62% | 1007.5 hPa | 0 mm | 1.34 m/s, 302° | 0 W/m² | - |
| 1778038968 | 18.33° C | 62% | 1007.7 hPa | 0 mm | 1.34 m/s, 259° | 0 W/m² | - |
| 1778038664 | 18.33° C | 61% | 1007.7 hPa | 0 mm | 2.68 m/s, 280° | 0 W/m² | - |
| 1778038361 | 18.33° C | 61% | 1007.6 hPa | 0 mm | 0.89 m/s, 3° | 0 W/m² | - |
| 1778038058 | 18.89° C | 61% | 1007.5 hPa | 0 mm | 0.89 m/s, 35° | 0 W/m² | - |
| 1778037755 | 18.89° C | 61% | 1007.6 hPa | 0 mm | 1.34 m/s, 273° | 0 W/m² | - |
| 1778037446 | 18.89° C | 61% | 1007.7 hPa | 0 mm | 1.34 m/s, 78° | 0 W/m² | - |
* Rain latest hour (hover to see other rain measurements)
** Current wind speed in m/s (hover to see current wind gust speed)